[[{"header":{"parameterUnit":"m.s-1","parameterCategory":1,"la1":30.2991,"la2":30.254,"lo1":-89.0895,"lo2":-89.0444,"dy":0.0017,"dx":0.0017,"nx":28,"ny":28,"refTime":"2025-06-08T09:00:00:Z","depth":0,"parameterNumber":2,"parameterNumberName":"U-component_of_WINDS"},"data":[0,0,0,0,0,0,0,0,0,0,0,0,0,0,0,0,0,0,0,0,0,0,0,0,0,0,0,0,0,0,0,0,0,0,0,0,0,0,0,0,0,0,0,0,0,0,0,0,0,0,0,0,0,0,0,0,0,0,4.444,4.4442,0,4.4585,4.4586,4.4588,4.455,4.4547,4.4544,4.4541,4.469,4.4696,4.4703,0,0,0,0,0,0,0,0,0,0,0,0,0,4.413,4.4136,4.444,4.4442,4.4444,4.4584,4.4586,4.4588,4.455,4.4547,4.4543,4.454,4.4688,4.4695,4.4703,0,0,0,0,0,0,0,0,0,0,0,0,0,4.4269,4.4138,4.444,4.4442,4.4444,4.4584,4.4586,4.4589,4.4551,4.4547,4.4543,4.4539,4.4685,4.4695,4.4704,4.4852,0,0,4.4735,4.4739,0,0,0,0,0,0,0,0,4.4261,4.428,4.444,4.4442,4.4444,4.4545,4.4531,4.4677,4.4552,4.451,4.4541,4.4536,4.4645,4.4658,4.4695,4.4859,4.4865,4.4736,4.4742,4.4746,4.4749,0,0,0,0,0,0,0,4.4251,4.4274,4.4497,4.4442,4.4445,4.4435,4.445,4.4559,4.46,4.4514,4.4511,4.4529,4.4645,4.4685,4.4698,4.4868,4.4735,4.4744,4.475,4.4754,4.5156,4.516,0,0,0,0,0,0,4.424,4.4266,4.4493,4.4502,4.434,4.4444,4.4461,4.4517,4.4599,4.4607,4.4532,4.4526,4.467,4.4686,4.4703,4.4878,4.4746,4.4755,4.4761,4.5151,4.5157,4.5162,0,0,0,0,0,0,4.4234,4.4261,4.4487,4.4383,4.4411,4.4454,4.4517,4.4522,4.4562,4.4613,4.462,4.4565,4.4667,4.4689,4.4814,4.4883,4.476,4.4769,4.5146,4.5153,4.516,4.5231,0,0,0,0,0,0,4.4225,4.4259,4.4316,4.4385,4.4417,4.4597,4.4522,4.4528,4.4579,4.4572,4.4646,4.4654,4.4666,4.48,4.4824,4.4894,4.4777,4.514,4.5149,4.5157,4.5223,4.524,4.5254,0,0,0,0,0,4.4214,4.4331,4.4319,4.4347,4.4489,4.4601,4.4619,4.463,4.4585,4.4641,4.4674,4.4651,4.4872,4.4813,4.484,4.4914,4.5136,4.5146,4.5157,4.5216,4.5236,4.5254,0,0,0,0,0,0,4.427,4.434,4.4328,4.4471,4.453,4.4594,4.4667,4.4653,4.4726,4.4717,4.4728,4.4745,4.4872,4.4906,4.4839,4.5059,4.4997,4.5013,4.5032,4.5052,4.5068,4.5056,4.4785,0,0,0,0,0,4.4299,4.4384,4.4441,4.4562,4.4592,4.4624,4.4673,4.4677,4.4738,4.4763,4.4805,4.4866,4.4948,4.5003,4.5082,4.5228,4.5241,4.5292,4.5308,4.532,4.5334,4.541,4.5432,4.5197,4.5197,4.5197,0,0,4.436,4.4409,4.4462,4.4574,4.462,4.4707,4.4646,4.4741,4.4805,4.4778,4.4898,4.4931,4.4999,4.5134,4.5196,4.5166,4.5402,4.5334,4.5344,4.535,4.5423,4.5445,4.5465,4.5204,4.5203,4.5202,0,0,4.4514,4.4561,4.4665,4.4712,4.4782,4.4803,4.4827,4.4894,4.4914,4.5034,4.5015,4.5091,4.5234,4.5282,4.5326,4.5495,4.5476,4.5521,4.5602,4.5676,4.5695,4.5711,4.5768,4.5789,4.5535,4.5535,4.5535,0,4.4581,4.4711,4.472,4.4816,4.4865,4.4844,4.4948,4.4993,4.5086,4.5119,4.5085,4.5261,4.5306,4.545,4.5491,4.5528,4.5555,4.5512,4.5691,4.5708,4.5723,4.5778,4.58,4.5539,4.5539,4.5538,4.5538,0,4.4787,4.4878,4.4953,4.5041,4.5099,4.5199,4.5222,4.5279,4.5277,4.53,4.5421,4.5474,4.5562,4.5597,4.5597,4.5741,4.5719,4.5688,4.5625,4.575,4.5802,4.5823,4.5546,4.5545,4.5543,4.5542,0,0,4.4982,4.5072,4.5099,4.5138,4.5213,4.5282,4.538,4.5465,4.5512,4.5576,4.5657,4.5777,4.5747,4.5796,4.5801,4.5866,4.5993,4.5827,4.5828,4.5853,4.6151,4.6172,4.6196,4.5981,4.5985,4.5989,4.6144,0,4.514,4.5312,4.5322,4.5477,4.5558,4.5538,4.5623,4.5677,4.5702,4.5774,4.5801,4.5884,4.5841,4.5869,4.5933,4.5964,4.6052,4.5953,4.6054,4.6058,4.6035,4.6224,4.6247,4.6391,4.6165,4.6168,4.6171,0,4.5348,4.5417,4.558,4.564,4.5674,4.575,4.5827,4.5897,4.5957,4.597,4.6023,4.6018,4.6116,4.6051,4.6185,4.6117,4.6159,4.618,4.6186,4.6194,4.612,4.6234,4.6438,4.6458,4.6203,4.6201,4.6198,0,4.5469,4.5603,4.5716,4.575,4.5824,4.5877,4.5911,4.5967,4.6016,4.6083,4.6115,4.6193,4.6235,4.6295,4.631,4.6262,4.6443,4.638,4.6454,4.6454,4.6492,4.6489,4.6703,4.6524,4.6523,4.6523,4.6523,0,4.5644,4.5743,4.5771,4.5841,4.5951,4.5961,4.607,4.6099,4.6149,4.6223,4.6212,4.6281,4.6298,4.637,4.6383,4.649,4.651,4.6522,4.6523,4.6521,4.6519,4.6547,4.6536,4.6529,4.6528,4.6526,4.6525,0,4.5797,4.582,4.5942,4.6001,4.6018,4.6097,4.6147,4.6213,4.6235,4.6328,4.6351,4.6385,4.6469,4.6491,4.6592,4.66,4.6725,4.6719,4.6705,4.6704,4.6775,4.6767,4.7012,4.7044,4.6847,4.6849,4.685,0,4.5905,4.5981,4.6048,4.6096,4.6131,4.621,4.6259,4.6272,4.6324,4.6396,4.6453,4.6536,4.6602,4.6737,4.6771,4.6847,4.6841,4.6922,4.6852,4.6847,4.6838,4.6832,4.6838,4.6934,4.6936,4.6938,4.6939,0,4.6094,4.6101,4.6173,4.6248,4.6307,4.6367,4.6425,4.6465,4.6485,4.6544,4.6629,4.6681,4.6782,4.6864,4.694,4.6973,4.6959,4.6961,4.6981,4.6979,4.6966,4.697,4.6737,4.6955,4.6953,4.6952,4.6951,4.6951,4.6227,4.6291,4.6347,4.6427,4.6471,4.6524,4.6588,4.6617,4.6688,4.6771,4.6775,4.6867,4.6922,4.7023,4.7061,4.7132,4.7107,4.7138,4.7145,4.7152,4.7156,4.6956,4.7146,4.7146,4.7145,4.7145,4.7145,0,4.6412,4.6446,4.652,4.6599,4.6661,4.6642,4.6704,4.6756,4.6837,4.689,4.6955,4.7052,4.713,4.7169,4.7245,4.7295,4.729,4.7314,4.7309,4.7316,4.7176,4.7149,4.7316,4.7316,4.7316,4.7316,4.7316,4.7316,4.6516,4.6623,4.6636,4.6765,4.6799,4.6888,4.6924,4.6972,4.7014,4.7122,4.7186,4.7211,4.7258,4.7337,4.7407,4.7416,4.7444,4.7471,4.7477,4.7344,4.7327,4.731,4.7284,4.7478,4.7478,4.7611,4.7612,4.7613]},{"header":{"parameterUnit":"m.s-1","parameterCategory":1,"la1":30.2991,"la2":30.254,"lo1":-89.0895,"lo2":-89.0444,"dy":0.0017,"dx":0.0017,"nx":28,"ny":28,"refTime":"2025-06-08T09:00:00:Z","depth":0,"parameterNumber":3,"parameterNumberName":"V-component_of_WINDS"},"data":[0,0,0,0,0,0,0,0,0,0,0,0,0,0,0,0,0,0,0,0,0,0,0,0,0,0,0,0,0,0,0,0,0,0,0,0,0,0,0,0,0,0,0,0,0,0,0,0,0,0,0,0,0,0,0,0,0,0,2.1798,2.1799,0,2.1857,2.1858,2.1859,2.1835,2.1833,2.1832,2.1831,2.1889,2.1892,2.1895,0,0,0,0,0,0,0,0,0,0,0,0,0,2.1661,2.1664,2.1798,2.1799,2.18,2.1857,2.1858,2.1859,2.1835,2.1833,2.1832,2.183,2.1888,2.1892,2.1895,0,0,0,0,0,0,0,0,0,0,0,0,0,2.172,2.1665,2.1798,2.1795,2.1795,2.1857,2.1858,2.1859,2.1835,2.1833,2.1831,2.1829,2.1887,2.1891,2.1896,2.1964,0,0,2.1909,2.191,0,0,0,0,0,0,0,0,2.1717,2.1725,2.1794,2.1795,2.1795,2.1837,2.1831,2.1894,2.1836,2.182,2.1831,2.1828,2.1873,2.1879,2.1894,2.1966,2.1969,2.1909,2.1912,2.1913,2.1915,0,0,0,0,0,0,0,2.1713,2.1723,2.1821,2.1795,2.1796,2.1789,2.1795,2.1843,2.1857,2.1821,2.182,2.1827,2.1873,2.189,2.1895,2.197,2.1909,2.1913,2.1915,2.1917,2.2099,2.2101,0,0,0,0,0,0,2.1709,2.1719,2.182,2.1823,2.175,2.1793,2.18,2.1825,2.1857,2.186,2.1829,2.1826,2.1884,2.189,2.1897,2.1978,2.1913,2.1917,2.192,2.2097,2.2099,2.2102,0,0,0,0,0,0,2.1706,2.1718,2.1817,2.1771,2.1783,2.1798,2.1826,2.1828,2.1845,2.1863,2.1865,2.1844,2.1882,2.1891,2.1947,2.198,2.1919,2.1923,2.2094,2.2097,2.2101,2.2141,0,0,0,0,0,0,2.1702,2.1717,2.1744,2.1772,2.1786,2.1867,2.1829,2.183,2.1852,2.1849,2.1877,2.188,2.1881,2.1941,2.1951,2.1985,2.1927,2.2091,2.2095,2.2099,2.2137,2.2146,2.2153,0,0,0,0,0,2.1698,2.1754,2.1746,2.1758,2.182,2.1869,2.1877,2.1878,2.1855,2.1882,2.1893,2.1879,2.1974,2.1947,2.1958,2.1994,2.2089,2.2094,2.2099,2.2133,2.2144,2.2153,0,0,0,0,0,0,2.1729,2.1757,2.1749,2.1816,2.184,2.1865,2.1899,2.1889,2.1921,2.1916,2.1915,2.1922,2.1979,2.1992,2.1961,2.206,2.2028,2.2036,2.205,2.206,2.2068,2.2064,2.193,0,0,0,0,0,2.1744,2.1783,2.1805,2.1861,2.1874,2.1884,2.1906,2.1904,2.193,2.194,2.1955,2.1979,2.2015,2.2038,2.2072,2.2138,2.2143,2.2168,2.2176,2.2182,2.2189,2.2224,2.2235,2.2118,2.2118,2.2118,0,0,2.1775,2.1795,2.182,2.1868,2.1887,2.1926,2.1893,2.1936,2.1965,2.1946,2.2,2.2012,2.2038,2.21,2.2127,2.2112,2.2222,2.2189,2.2194,2.2197,2.223,2.2241,2.2251,2.2122,2.2121,2.2121,0,0,2.1851,2.1871,2.192,2.1939,2.1968,2.1974,2.1986,2.2012,2.2019,2.2073,2.2059,2.2092,2.2154,2.2173,2.2191,2.2272,2.226,2.2283,2.2325,2.2358,2.2368,2.2376,2.2404,2.2414,2.2289,2.229,2.229,0,2.1886,2.1945,2.1946,2.1989,2.201,2.1995,2.2044,2.2062,2.2101,2.2115,2.2097,2.2172,2.2189,2.2254,2.2274,2.2289,2.2301,2.228,2.2366,2.2374,2.2382,2.2409,2.2419,2.2292,2.2292,2.2292,2.2291,0,2.1986,2.2027,2.2062,2.21,2.2125,2.2171,2.2177,2.2202,2.2197,2.2205,2.2259,2.2279,2.2315,2.233,2.2327,2.2394,2.2384,2.2366,2.2334,2.2396,2.2421,2.2431,2.2296,2.2295,2.2294,2.2293,0,0,2.2085,2.2121,2.2134,2.2151,2.2181,2.2212,2.2256,2.2292,2.2313,2.2339,2.2375,2.2427,2.241,2.243,2.2428,2.2458,2.252,2.2437,2.2437,2.2451,2.2594,2.2607,2.2619,2.2512,2.2514,2.2515,2.2591,0,2.2164,2.2242,2.2243,2.2315,2.2352,2.2337,2.2375,2.2397,2.2405,2.2436,2.2444,2.248,2.2456,2.2468,2.2497,2.2506,2.2549,2.2501,2.2544,2.2546,2.2538,2.2632,2.2647,2.2718,2.2601,2.2603,2.2604,0,2.2266,2.2296,2.2371,2.2395,2.241,2.2445,2.2477,2.2508,2.2531,2.2534,2.2556,2.2549,2.2593,2.2559,2.2618,2.2585,2.2603,2.261,2.2613,2.2617,2.2579,2.2639,2.2741,2.2751,2.262,2.2619,2.2618,0,2.233,2.2389,2.2441,2.2456,2.2484,2.2509,2.2521,2.2543,2.2564,2.2592,2.2605,2.2637,2.2655,2.2679,2.2681,2.2656,2.274,2.2706,2.2743,2.2743,2.2762,2.2761,2.2868,2.2773,2.2773,2.2773,2.2773,0,2.2417,2.2464,2.247,2.2503,2.2554,2.2553,2.2604,2.2614,2.2633,2.2666,2.2655,2.2686,2.2686,2.2717,2.2718,2.2766,2.2774,2.2777,2.2777,2.2778,2.2778,2.279,2.2785,2.2776,2.2775,2.2775,2.2774,0,2.2498,2.2504,2.256,2.2582,2.2589,2.2626,2.2644,2.2674,2.268,2.2722,2.2731,2.2741,2.2777,2.278,2.2822,2.2823,2.288,2.2875,2.2873,2.2872,2.2908,2.2904,2.3026,2.3042,2.2938,2.2939,2.294,0,2.2553,2.2589,2.2615,2.2636,2.265,2.2685,2.2707,2.2707,2.2729,2.2757,2.2784,2.2819,2.2846,2.2904,2.2914,2.2945,2.294,2.2981,2.2945,2.2944,2.294,2.2938,2.2941,2.2988,2.2989,2.299,2.2991,0,2.2651,2.2652,2.2683,2.2716,2.2742,2.2767,2.2791,2.2809,2.2811,2.2837,2.2873,2.2895,2.2937,2.2971,2.3002,2.3013,2.3002,2.3002,2.3012,2.3013,2.3011,2.3012,2.2891,2.2999,2.2998,2.2998,2.2997,2.2997,2.272,2.275,2.2773,2.2808,2.2826,2.2848,2.2877,2.2886,2.2917,2.2952,2.2949,2.299,2.301,2.305,2.3064,2.3094,2.3081,2.3095,2.3099,2.3103,2.3106,2.3006,2.31,2.31,2.3099,2.3099,2.3099,0,2.2816,2.283,2.2862,2.2895,2.2922,2.291,2.2935,2.2958,2.2994,2.3014,2.3042,2.3083,2.3116,2.3128,2.3159,2.3181,2.3177,2.3189,2.3188,2.319,2.3117,2.3105,2.3192,2.3192,2.3192,2.3192,2.3192,2.3192,2.2869,2.292,2.2923,2.2981,2.2994,2.3034,2.3049,2.3069,2.3085,2.3132,2.3159,2.3167,2.3183,2.3216,2.3244,2.3247,2.3259,2.3274,2.3274,2.3205,2.3196,2.3187,2.3175,2.3276,2.3276,2.3344,2.3345,2.3346]}]]